Terminal Aerodrome Forecast
Issued by NWS

Home | Current Version | Previous Version | Text Only | Print | Product List | Glossary Off
Versions: 1 2 3 4 5 6 7 8 9 10 11 12 13 14 15

000
FTUS43 KFGF 311100
TAFBJI
TAF
KBJI 311134Z 3112/0112 13006KT P6SM BKN015
      TEMPO 3114/3116 15012G18KT P6SM -RA OVC008
     FM311700 15010G17KT P6SM OVC025
     FM312000 18006KT P6SM -TSRA BKN025CB
     FM010200 24007KT P6SM BKN030=

USA.gov is the U.S. government's official web portal to all federal, state and local government web resources and services.